DW5858 Weather Reports


Display with metric or nautical units.
time (UTC)temp
F
wind
direction
speed
MPH
gust
MPH
rain 1hr
in
rain 24hr
in
rain mn
in
humidity
%
barometer
mb
20200407171513 78 231 2.0 5.0 0.00 0.00 0.00 47 1005.8
20200407170517 76 233 1.0 2.0 0.00 0.00 0.00 50 1005.9
20200407164015 74 316 2.0 5.0 0.00 0.00 0.00 49 1006.2
20200407163515 74 289 2.0 6.0 0.00 0.00 0.00 49 1006.3
20200407163015 73 261 2.0 6.0 0.00 0.00 0.00 56 1006.4
20200407162513 72 265 2.0 4.0 0.00 0.00 0.00 56 1006.5
20200407162013 71 266 2.0 4.0 0.00 0.00 0.00 60 1006.5
20200407161513 70 271 2.0 7.0 0.00 0.00 0.00 63 1006.5
20200407161011 70 272 3.0 7.0 0.00 0.00 0.00 62 1006.6
20200407160510 69 251 3.0 6.0 0.00 0.00 0.00 65 1006.6
20200407160011 68 239 3.0 4.0 0.00 0.00 0.00 67 1006.6
20200407155508 67 242 3.0 6.0 0.00 0.00 0.00 68 1006.6
20200407155007 67 227 3.0 6.0 0.00 0.00 0.00 70 1006.5
20200407154508 66 225 3.0 6.0 0.00 0.00 0.00 71 1006.5
20200407154006 65 236 3.0 6.0 0.00 0.00 0.00 71 1006.4
20200407153504 65 237 3.0 5.0 0.00 0.00 0.00 73 1006.4
20200407153007 64 233 3.0 5.0 0.00 0.00 0.00 74 1006.5
20200407152508 64 232 3.0 7.0 0.00 0.00 0.00 75 1006.5
20200407152011 63 241 3.0 7.0 0.00 0.00 0.00 78 1006.6
20200407151516 62 241 4.0 8.0 0.00 0.00 0.00 78 1006.5
20200407151018 62 235 4.0 8.0 0.00 0.00 0.00 81 1006.5
20200407150517 61 238 3.0 7.0 0.00 0.00 0.00 84 1006.5
20200407150019 60 238 3.0 7.0 0.00 0.00 0.00 85 1006.5
20200407145516 60 230 3.0 6.0 0.00 0.00 0.00 89 1006.5
20200407144515 60 226 3.0 6.0 0.00 0.00 0.00 90 1006.4
20200407144013 59 230 2.0 4.0 0.00 0.00 0.00 90 1006.3
20200407143511 58 225 2.0 4.0 0.00 0.00 0.00 90 1006.3
20200407143012 58 222 3.0 7.0 0.00 0.00 0.00 90 1006.2
20200407142510 57 225 4.0 9.0 0.00 0.00 0.00 89 1006.3
20200407142009 57 211 4.0 9.0 0.00 0.00 0.00 89 1006.1
20200407141510 56 211 4.0 8.0 0.00 0.00 0.00 89 1006.1
20200407141007 56 218 4.0 10.0 0.00 0.00 0.00 89 1006.1
20200407140507 56 218 4.0 10.0 0.00 0.00 0.00 89 1006.0
20200407140008 56 218 3.0 8.0 0.00 0.00 0.00 89 1006.0
20200407134508 56 209 2.0 6.0 0.00 0.00 0.00 89 1005.9
20200407133514 56 211 2.0 4.0 0.00 0.00 0.00 89 1006.1
20200407132518 56 209 1.0 4.0 0.00 0.00 0.00 89 1006.3
20200407131518 55 227 3.0 10.0 0.00 0.00 0.00 89 1005.8
20200407131016 55 227 4.0 10.0 0.00 0.00 0.00 89 1005.7
20200407130514 55 219 4.0 8.0 0.00 0.00 0.00 88 1005.5
20200407130015 54 209 3.0 7.0 0.00 0.00 0.00 88 1005.5
20200407125012 54 203 1.0 4.0 0.00 0.00 0.00 88 1005.5
20200407124512 54 196 0.0 1.0 0.00 0.00 0.00 88 1005.4
20200407123509 54 188 2.0 5.0 0.00 0.00 0.00 88 1005.3
20200407123011 54 194 2.0 5.0 0.00 0.00 0.00 88 1005.3
20200407122510 54 205 1.0 5.0 0.00 0.00 0.00 88 1005.4
20200407121509 54 0 0.0 0.0 0.00 0.00 0.00 87 1005.5
20200407121006 54 215 1.0 4.0 0.00 0.00 0.00 87 1005.5
20200407120506 55 215 1.0 4.0 0.00 0.00 0.00 87 1005.5
20200407120011 55 216 0.0 3.0 0.00 0.00 0.00 87 1005.6
20200407115505 55 215 0.0 4.0 0.00 0.00 0.00 87 1005.5
20200407114809 55 219 1.0 5.0 0.00 0.00 0.00 86 1005.4
20200407114014 55 217 0.0 3.0 0.00 0.00 0.00 86 1005.7
20200407113518 55 217 0.0 3.0 0.00 0.00 0.00 85 1005.2
20200407113018 55 218 1.0 3.0 0.00 0.00 0.00 85 1005.6
20200407112517 56 219 1.0 3.0 0.00 0.00 0.00 86 1005.6
20200407112016 56 229 1.0 4.0 0.00 0.00 0.00 85 1005.4
20200407111516 56 229 2.0 6.0 0.00 0.00 0.00 85 1005.0
20200407110513 57 178 2.0 5.0 0.00 0.00 0.00 86 1004.8
20200407105011 57 32 2.0 5.0 0.00 0.00 0.00 92 1004.7
20200407104511 57 31 3.0 9.0 0.00 0.00 0.00 92 1004.6
20200407104009 57 35 3.0 9.0 0.00 0.00 0.00 92 1004.6
20200407103508 57 33 3.0 9.0 0.00 0.00 0.00 91 1004.6
20200407102510 57 29 5.0 11.0 0.00 0.00 0.00 91 1004.6
20200407102006 57 33 6.0 12.0 0.00 0.00 0.00 91 1004.6
20200407101007 58 34 7.0 12.0 0.00 0.00 0.00 91 1004.5
20200407100513 58 37 6.0 11.0 0.00 0.00 0.00 90 1004.4
20200407100012 58 39 6.0 10.0 0.00 0.00 0.00 90 1004.5
20200407095514 58 38 6.0 12.0 0.00 0.00 0.00 90 1004.5
20200407095018 58 39 8.0 12.0 0.00 0.00 0.00 90 1004.5
20200407094016 58 38 9.0 14.0 0.00 0.00 0.00 90 1004.4
20200407093016 58 44 9.0 14.0 0.00 0.00 0.00 90 1004.4
20200407091011 59 45 8.0 14.0 0.00 0.00 0.00 89 1004.5
20200407090510 58 43 8.0 15.0 0.00 0.00 0.00 89 1004.4
20200407090011 59 42 9.0 17.0 0.00 0.00 0.00 88 1004.3
20200407085508 59 42 9.0 17.0 0.00 0.00 0.00 88 1004.4
20200407085008 59 43 9.0 15.0 0.00 0.00 0.00 88 1004.6
20200407084511 59 46 10.0 15.0 0.00 0.00 0.00 88 1004.7
20200407083505 59 45 11.0 17.0 0.00 0.00 0.00 88 1004.7
20200407083006 59 44 10.0 17.0 0.00 0.00 0.00 87 1004.8
20200407082508 59 42 10.0 17.0 0.00 0.00 0.00 87 1004.8
20200407082011 59 43 9.0 16.0 0.00 0.00 0.00 88 1004.8
20200407081018 59 40 10.0 16.0 0.00 0.00 0.00 87 1004.9
20200407080517 59 37 10.0 16.0 0.00 0.00 0.00 87 1005.0
20200407080017 59 37 10.0 16.0 0.00 0.00 0.00 86 1005.0
20200407075515 59 39 9.0 15.0 0.00 0.00 0.00 86 1005.1
20200407075047 60 36 10.0 16.0 0.00 0.00 0.00 86 1005.1
20200407074515 60 34 10.0 16.0 0.00 0.00 0.00 86 1005.2
20200407074013 60 36 10.0 15.0 0.00 0.00 0.00 86 1005.2
20200407073012 60 35 9.0 15.0 0.00 0.00 0.00 86 1005.4
20200407072511 60 33 10.0 15.0 0.00 0.00 0.00 86 1005.4
20200407072010 60 32 10.0 15.0 0.00 0.00 0.00 86 1005.4
20200407071007 59 23 8.0 14.0 0.00 0.00 0.00 86 1005.4
20200407070507 59 27 8.0 14.0 0.00 0.00 0.00 86 1005.5
20200407065508 59 19 7.0 15.0 0.00 0.00 0.00 86 1005.5
20200407065005 59 19 6.0 15.0 0.00 0.00 0.00 87 1005.5
20200407064507 59 12 4.0 11.0 0.00 0.00 0.00 87 1005.6
20200407064009 59 358 4.0 8.0 0.00 0.00 0.00 87 1005.6
20200407063514 59 3 4.0 8.0 0.00 0.00 0.00 87 1005.7
20200407063017 59 9 4.0 8.0 0.00 0.00 0.00 87 1005.7
20200407062518 59 359 4.0 7.0 0.00 0.00 0.00 87 1005.7
20200407062017 59 354 4.0 10.0 0.00 0.00 0.00 87 1005.8
20200407061517 59 2 4.0 10.0 0.00 0.00 0.00 87 1005.9
20200407060515 59 351 4.0 10.0 0.00 0.00 0.00 87 1005.9
20200407060015 59 340 4.0 10.0 0.00 0.00 0.00 88 1006.0
20200407055012 59 331 4.0 10.0 0.00 0.00 0.00 87 1006.1
20200407054010 59 320 4.0 10.0 0.00 0.00 0.00 87 1006.2
20200407053509 59 310 5.0 10.0 0.00 0.00 0.00 87 1006.2
20200407053009 59 312 5.0 10.0 0.00 0.00 0.00 88 1006.3
20200407051507 59 308 4.0 8.0 0.00 0.00 0.00 88 1006.3
20200407050508 59 313 3.0 8.0 0.00 0.00 0.00 88 1006.3
20200407050013 59 310 4.0 8.0 0.00 0.00 0.00 88 1006.2
20200407045516 59 306 5.0 11.0 0.00 0.00 0.00 88 1006.2
20200407045019 59 305 6.0 11.0 0.00 0.00 0.00 88 1006.2
20200407044518 59 306 5.0 9.0 0.00 0.00 0.00 88 1006.1
20200407044017 59 306 6.0 9.0 0.00 0.00 0.00 88 1006.2
20200407043517 59 299 5.0 8.0 0.00 0.00 0.00 88 1006.2
20200407043016 59 296 5.0 9.0 0.00 0.00 0.00 88 1006.3
20200407042013 60 296 5.0 10.0 0.00 0.00 0.00 87 1006.3
20200407041514 60 300 5.0 10.0 0.00 0.00 0.00 87 1006.4
20200407041012 60 300 5.0 10.0 0.00 0.00 0.00 87 1006.5
20200407040511 60 226 5.0 9.0 0.00 0.00 0.00 87 1006.5
20200407035509 60 158 5.0 10.0 0.00 0.00 0.00 80 1006.5
20200407034509 60 158 4.0 8.0 0.00 0.00 0.00 79 1006.5
20200407034007 61 158 4.0 7.0 0.00 0.00 0.00 79 1006.6
20200407033506 61 148 4.0 9.0 0.00 0.00 0.00 79 1006.7
20200407033006 61 144 4.0 9.0 0.00 0.00 0.00 79 1006.8
20200407032012 61 146 5.0 9.0 0.00 0.00 0.00 78 1006.9
20200407031516 61 146 5.0 9.0 0.00 0.00 0.00 78 1007.0
20200407031018 62 149 5.0 12.0 0.00 0.00 0.00 77 1006.9
20200407030516 62 154 5.0 12.0 0.00 0.00 0.00 77 1006.9
20200407025515 62 154 4.0 7.0 0.00 0.00 0.00 76 1007.1
20200407025014 62 141 2.0 6.0 0.00 0.00 0.00 76 1007.1
20200407023512 63 131 0.0 4.0 0.00 0.00 0.00 74 1007.0
20200407023011 63 117 0.0 1.0 0.00 0.00 0.00 74 1006.9
20200407015506 65 144 2.0 4.0 0.00 0.00 0.00 72 1006.5
20200407015010 65 146 2.0 5.0 0.00 0.00 0.00 72 1006.5
20200407014516 65 153 3.0 5.0 0.00 0.00 0.00 72 1006.3
20200407014017 65 156 3.0 6.0 0.00 0.00 0.00 72 1006.2
20200407013516 65 147 3.0 6.0 0.00 0.00 0.00 71 1006.2
20200407013016 66 144 3.0 7.0 0.00 0.00 0.00 71 1006.3
20200407011014 67 154 4.0 8.0 0.00 0.00 0.00 70 1006.2
20200407010513 67 158 4.0 9.0 0.00 0.00 0.00 69 1006.1
20200407005011 68 156 5.0 12.0 0.00 0.00 0.00 68 1005.9
20200407003508 68 170 3.0 8.0 0.00 0.00 0.00 68 1006.0
20200407003008 68 171 3.0 8.0 0.00 0.00 0.00 67 1006.0
20200407002506 69 163 4.0 9.0 0.00 0.00 0.00 67 1006.1
20200407002004 69 153 5.0 9.0 0.00 0.00 0.00 67 1006.1
20200407000020 71 176 5.0 11.0 0.00 0.00 0.00 64 1006.2
20200406235017 71 169 4.0 9.0 0.00 0.00 0.00 63 1006.2
20200406234518 71 176 3.0 9.0 0.00 0.00 0.00 62 1006.2
20200406234016 71 198 4.0 10.0 0.00 0.00 0.00 63 1006.2
20200406232012 71 202 4.0 13.0 0.00 0.00 0.00 62 1006.2
20200406231513 71 217 5.0 13.0 0.00 0.00 0.00 61 1006.2
20200406231012 71 215 5.0 13.0 0.00 0.00 0.00 60 1006.1
20200406230510 72 229 5.0 14.0 0.00 0.00 0.00 59 1006.0
20200406225509 72 311 7.0 14.0 0.00 0.00 0.00 59 1006.1
20200406225008 72 307 6.0 14.0 0.00 0.00 0.00 59 1006.1
20200406224006 72 303 5.0 14.0 0.00 0.00 0.00 59 1006.2
20200406223505 72 312 4.0 10.0 0.00 0.00 0.00 49 1006.2
20200406221515 71 245 4.0 10.0 0.00 0.00 0.00 53 1006.2
20200406221017 71 242 5.0 12.0 0.00 0.00 0.00 52 1006.3
20200406220518 70 236 4.0 12.0 0.00 0.00 0.00 55 1006.3
20200406215014 70 232 6.0 15.0 0.00 0.00 0.00 56 1006.2
20200406214012 70 238 4.0 10.0 0.00 0.00 0.00 56 1006.2
20200406213512 70 238 4.0 9.0 0.00 0.00 0.00 56 1006.3
20200406213011 70 233 6.0 14.0 0.00 0.00 0.00 57 1006.4
20200406212510 70 235 5.0 14.0 0.00 0.00 0.00 57 1006.5
20200406212010 70 245 4.0 8.0 0.00 0.00 0.00 58 1006.5
20200406211509 70 249 4.0 10.0 0.00 0.00 0.00 59 1006.5
20200406210506 70 243 6.0 14.0 0.00 0.00 0.00 58 1006.7
20200406210007 70 235 7.0 14.0 0.00 0.00 0.00 57 1006.7
20200406205009 70 261 4.0 11.0 0.00 0.00 0.00 57 1006.9
20200406204514 70 274 5.0 14.0 0.00 0.00 0.00 58 1007.2
20200406204017 69 267 5.0 14.0 0.00 0.00 0.00 59 1007.3
20200406203517 69 269 5.0 12.0 0.00 0.00 0.00 59 1007.3
20200406203018 69 248 5.0 12.0 0.00 0.00 0.00 59 1007.2
20200406202515 69 233 5.0 11.0 0.00 0.00 0.00 60 1007.2
20200406202015 69 244 6.0 14.0 0.00 0.00 0.00 60 1007.2
20200406200512 68 236 7.0 15.0 0.00 0.00 0.00 62 1007.4
20200406200013 67 234 7.0 15.0 0.00 0.00 0.00 62 1007.5
20200406194008 66 243 3.0 8.0 0.00 0.00 0.00 65 1007.8
20200406193008 65 248 4.0 9.0 0.00 0.00 0.00 67 1007.9
20200406192004 65 234 6.0 14.0 0.00 0.00 0.00 67 1008.2
20200406191509 65 231 5.0 14.0 0.00 0.00 0.00 67 1008.1
20200406191012 64 231 5.0 11.0 0.00 0.00 0.00 69 1008.0
20200406190516 64 237 5.0 11.0 0.00 0.00 0.00 69 1008.1
20200406190019 64 240 3.0 11.0 0.00 0.00 0.00 70 1008.0
20200406185016 63 232 4.0 8.0 0.00 0.00 0.00 70 1008.2
20200406184515 63 230 4.0 10.0 0.00 0.00 0.00 71 1008.5
20200406184015 63 235 4.0 10.0 0.00 0.00 0.00 71 1008.5
20200406182512 63 237 4.0 11.0 0.00 0.00 0.00 70 1008.8
20200406181511 63 237 4.0 7.0 0.00 0.00 0.00 71 1008.9
20200406180009 62 237 5.0 13.0 0.00 0.00 0.00 72 1009.2
20200406175507 62 239 5.0 13.0 0.00 0.00 0.00 72 1009.3
20200406175007 62 237 4.0 11.0 0.00 0.00 0.00 72 1009.4
20200406172516 61 254 6.0 12.0 0.00 0.00 0.00 73 1009.7
20200406172018 61 263 6.0 15.0 0.00 0.00 0.00 74 1009.6